Regional Weather Roundup
Issued by NWS

Home | Current Version | Previous Version | Text Only | Print | Product List | Glossary Off
Versions: 1 2 3 4 5 6 7 8 9 10 11 12 13 14 15 16 17 18 19 20 21 22 23 24 25 26 27 28 29 30 31 32 33 34 35 36 37 38 39 40 41 42 43 44 45 46 47 48 49 50

000
ASUS43 KMKX 261911
RWRWI

WISCONSIN REGIONAL WEATHER ROUNDUP
NATIONAL WEATHER SERVICE MILWAUKEE/SULLIVAN WI
200 PM CDT MON JUN 26 2017

NOTE: "FAIR" INDICATES FEW OR NO CLOUDS BELOW 12,000 FEET WITH NO
SIGNIFICANT WEATHER AND/OR OBSTRUCTIONS TO VISIBILITY.

WIZ001-002-006>008-014>016-023>028-262000-
NORTHWEST WISCONSIN

CITY           SKY/WX    TMP DP  RH WIND       PRES   REMARKS
SUPERIOR ARPT  NOT AVBL
ASHLAND        CLOUDY    64  47  53 N6        30.08F
HAYWARD        MOSUNNY   65  43  44 MISG      30.10F
SIREN          MOSUNNY   66  43  43 N9        30.13F
CUMBERLAND     CLOUDY    63  41  45 N8        30.12F
RICE LAKE      MOSUNNY   65  42  43 NW10      30.13F
CHETEK         PTSUNNY   63  45  52 N9        30.12F
LADYSMITH      PTSUNNY   64  46  51 NW14      30.12F
EAU CLAIRE     PTSUNNY   66  43  43 N12       30.11F
MENOMONIE      MOSUNNY   66  44  43 NW7       30.13F
NEW RICHMOND   MOSUNNY   68  39  35 N13G24    30.14F
OSCEOLA        MOSUNNY   67  42  39 N10       30.16F
$$

WIZ003>005-009-010-017-018-262000-
NORTH CENTRAL WISCONSIN

CITY           SKY/WX    TMP DP  RH WIND       PRES   REMARKS
MANITOWISH WTR CLOUDY    58  47  67 N6        30.08F
ARBOR VITAE    PTSUNNY   59  48  67 N6        30.08F
WOODRUFF       PTSUNNY   59  48  67 N6        30.08F
RHINELANDER    CLOUDY    55  45  68 N9G22     30.09R
EAGLE RIVER    CLOUDY    53  42  68 N8        30.08R
LAND O LAKES   CLOUDY    55  46  72 N9        30.09S
PHILLIPS       PTSUNNY   60  46  58 N12G18    30.09F
TOMAHAWK       NOT AVBL
MEDFORD        CLOUDY    58  44  60 N13       30.10S
MERRILL        CLOUDY    58  45  62 N17       30.09S
$$

WIZ029-030-035-036-043>047-262000-
CENTRAL WISCONSIN

CITY           SKY/WX    TMP DP  RH WIND       PRES   REMARKS
WAUSAU         CLOUDY    58  45  62 N13G25    30.06F
MOSINEE        CLOUDY    57  46  67 N14       30.10S
MARSHFIELD     CLOUDY    61  45  55 N16G26    30.10R
STEVENS POINT  CLOUDY    56  43  62 NW16G22   30.08F
WAUPACA        LGT RAIN  59  47  64 NW13G20   30.06S
WAUTOMA        CLOUDY    61  45  55 NW15G23   30.08F
WISC RAPIDS    CLOUDY    60  45  57 N13       30.10S
CAMP DOUGLAS   PTSUNNY   61  46  59 NW9       30.10S
$$

WIZ011>013-019>022-031-037>040-048>050-262000-
NORTHEAST WISCONSIN

CITY           SKY/WX    TMP DP  RH WIND       PRES   REMARKS
ANTIGO         CLOUDY    54  49  83 NW15      30.06S
SHAWANO        PTSUNNY   62  50  65 NW8       30.03S
OCONTO         CLOUDY    56  51  82 NW8       30.01S
STURGEON BAY     N/A     58  49  72 W12         N/A
GREEN BAY      PTSUNNY   62  50  64 W13G24    30.03F
MANITOWOC      CLOUDY    58  45  62 NW13      30.03S
APPLETON       PTSUNNY   59  41  51 W17       30.03F
CLINTONVILLE   CLOUDY    59  45  58 NW12      30.03F
OSHKOSH        CLOUDY    60  45  57 NW16      30.04F
$$

WIZ032>034-041-042-053>061-262000-
SOUTHWEST WISCONSIN

CITY           SKY/WX    TMP DP  RH WIND       PRES   REMARKS
LA CROSSE      PTSUNNY   72  45  37 NW17      30.12F
SPARTA         PTSUNNY   63  45  51 NW9G20    30.13S
VIROQUA        PTSUNNY   62  45  53 NW13G20   30.14S
BOSCOBEL       PTSUNNY   67  43  41 NW12G20   30.13F
PRAIRIE DU CHI MOSUNNY   67  40  36 NW13G18   30.13F
PLATTEVILLE    MOSUNNY   67  44  43 W14G21    30.12F
$$

WIZ056-057-062-063-064-067-068-262000-
SOUTH CENTRAL WISCONSIN

CITY           SKY/WX    TMP DP  RH WIND       PRES   REMARKS
REEDSBURG      CLOUDY    60  45  57 W15       30.11S
BARABOO/DELLS  RAIN      58  44  61 NW12G20   30.11R
LONE ROCK      PTSUNNY   68  44  42 NW15G22   30.11F
MINERAL POINT  MOSUNNY   66  43  42 NW13G20   30.12S
MADISON        PTSUNNY   64  45  49 NW13G25   30.08F
MIDDLETON      PTSUNNY   66  45  45 NW16      30.10S
WATERTOWN      NOT AVBL
MONROE         PTSUNNY   64  39  39 NW14G28   30.10S
JANESVILLE     PTSUNNY   70  41  35 NW17G23   30.07F
$$

WIZ051-052-058>065-066-070>072-262000-
SOUTHEAST WISCONSIN

CITY           SKY/WX    TMP DP  RH WIND       PRES   REMARKS
MILWAUKEE      PTSUNNY   66  43  43 NW17G26   30.04F
WAUKESHA       CLOUDY    59  43  55 W17G26    30.07F
MILWAUKEE/TIMM CLOUDY    63  39  42 W21G26    30.06S
RACINE         PTSUNNY   68  43  40 W16G24    30.06F
KENOSHA        MOSUNNY   67  41  38 NW21G29   30.05F
FOND DU LAC    CLOUDY    62  43  49 W21G30    30.05F
SHEBOYGAN      CLOUDY    58  46  64 NW18      30.04S
WEST BEND      CLOUDY    59  43  55 NW21      30.05S
JUNEAU         CLOUDY    56  46  68 W12G23    30.09R
$$

LSZ147-162-262000-
LAKE SUPERIOR

STATION/POSITION TIME  TEMP    WIND        PRES    WAVE
                       AIR SEA DIR/SP/G            HT/PER
                 (UTC) (F)     (DEG/KT/KT) (MB)    (FT/S)
W MID LAKE BUOY  1850   45 39  240/ 12/ 14 1017.8F   2/ 4
DEVILS ISLAND    1900   56     230/ 13/ 15 1018.1F
SAXON HARBOR     1830   63      80/  2/  4 1018.6F
$$

LMZ867-665-643>646-262000-
LAKE MICHIGAN

STATION/POSITION TIME  TEMP    WIND        PRES    WAVE
                       AIR SEA DIR/SP/G            HT/PER
                 (UTC) (F)     (DEG/KT/KT) (MB)    (FT/S)
CHAMBERS ISLAND  1840   58     270/  4/  9 1015.2F
S GREEN BAY BUOY 1900   58     280/ 12/ 16 1015.7
N MID LAKE BUOY  1850   56 56  260/  6/  8 1015.3F   1/ 3
NORTHPORT PIER   1840   57     300/  6/ 13 1015.2S
KEWAUNEE LAKESHO 1848   54     260/  6/ 10 1016.0S
SHEBOYGAN LAKESH 1900   54     330/ 11/ 13 1017.1R
PORT WASHINGTON  1840   63     280/ 13/ 27 1017.9F
ATWATER BUOY     1809   61 57  280/ 17/ 19 1017.4F
MILWAUKEE LAKESH 1850   62     280/ 18/ 25   N/A
S MID LAKE BUOY  1850   62 62  310/  8/ 10 1017.5F   2/ 4
KENOSHA   LAKESH 1900   67     270/ 18/ 29 1017.3
$$

TC  - TEMPERATURE IN CELSIUS
VSB - VISIBILITY IN STATUTE MILES
WCI - WIND CHILL INDEX
HX  - HEAT INDEX





USA.gov is the U.S. government's official web portal to all federal, state and local government web resources and services.